Time,TemperatureF,DewpointF,PressureIn,WindDirection,WindDirectionDegrees,WindSpeedMPH,WindSpeedGustMPH,Humidity,HourlyPrecipIn,Conditions,Clouds,dailyrainin,SolarRadiationWatts/m^2,SoftwareType,DateUTC
2013-05-07 00:01:00,48.5,44.2,30.15,South,174,0.0,0.0,85,0.00,,---,0.00,0.00,VWS V14.01,2013-05-07 04:01:00,
2013-05-07 00:06:00,48.2,44.2,30.15,South,174,0.0,0.0,86,0.00,,---,0.00,0.00,VWS V14.01,2013-05-07 04:06:00,
2013-05-07 00:11:00,48.1,44.4,30.15,South,174,0.0,0.0,87,0.00,,---,0.00,0.00,VWS V14.01,2013-05-07 04:11:00,
2013-05-07 00:16:00,47.9,44.2,30.15,South,174,0.0,0.0,87,0.00,,---,0.00,0.00,VWS V14.01,2013-05-07 04:16:00,
2013-05-07 00:21:00,47.9,44.5,30.15,South,174,0.0,0.0,88,0.00,,---,0.00,0.00,VWS V14.01,2013-05-07 04:21:00,
2013-05-07 00:26:00,47.5,44.1,30.15,South,174,0.0,0.0,88,0.00,,---,0.00,0.00,VWS V14.01,2013-05-07 04:26:00,
2013-05-07 00:31:00,47.3,44.2,30.15,South,174,0.0,0.0,89,0.00,,---,0.00,0.00,VWS V14.01,2013-05-07 04:31:00,
2013-05-07 00:36:00,47.0,43.6,30.15,South,174,0.0,0.0,88,0.00,,---,0.00,0.00,VWS V14.01,2013-05-07 04:36:00,
2013-05-07 00:41:00,46.7,43.3,30.15,South,174,0.0,0.0,88,0.00,,---,0.00,0.00,VWS V14.01,2013-05-07 04:41:00,
2013-05-07 00:46:00,46.6,43.5,30.15,South,174,0.0,0.0,89,0.00,,---,0.00,0.00,VWS V14.01,2013-05-07 04:46:00,
2013-05-07 00:51:00,46.4,43.3,30.15,South,174,0.0,0.0,89,0.00,,---,0.00,0.00,VWS V14.01,2013-05-07 04:51:00,
2013-05-07 00:56:00,46.3,43.5,30.14,South,174,0.0,0.0,90,0.00,,---,0.00,0.00,VWS V14.01,2013-05-07 04:56:00,
2013-05-07 01:01:00,46.1,43.3,30.14,South,174,0.0,0.0,90,0.00,,---,0.00,0.00,VWS V14.01,2013-05-07 05:01:00,
2013-05-07 01:06:00,46.1,43.6,30.14,South,174,0.0,0.0,91,0.00,,---,0.00,0.00,VWS V14.01,2013-05-07 05:06:00,
2013-05-07 01:11:00,46.1,43.6,30.14,South,174,0.0,0.0,91,0.00,,---,0.00,0.00,VWS V14.01,2013-05-07 05:11:00,
2013-05-07 01:16:00,45.9,43.4,30.14,South,174,0.0,0.0,91,0.00,,---,0.00,0.00,VWS V14.01,2013-05-07 05:16:00,
2013-05-07 01:21:00,45.9,43.4,30.14,South,174,0.0,0.0,91,0.00,,---,0.00,0.00,VWS V14.01,2013-05-07 05:21:00,
2013-05-07 01:26:00,45.9,43.4,30.14,South,174,0.0,0.0,91,0.00,,---,0.00,0.00,VWS V14.01,2013-05-07 05:26:00,
2013-05-07 01:31:00,45.7,43.5,30.14,South,174,0.0,0.0,92,0.00,,---,0.00,0.00,VWS V14.01,2013-05-07 05:31:00,
2013-05-07 01:36:00,45.9,44.0,30.14,South,174,0.0,0.0,93,0.00,,---,0.00,0.00,VWS V14.01,2013-05-07 05:36:00,
2013-05-07 01:41:00,46.0,44.1,30.14,South,174,0.0,0.0,93,0.00,,---,0.00,0.00,VWS V14.01,2013-05-07 05:41:00,
2013-05-07 01:46:00,46.0,44.1,30.14,South,174,0.0,0.0,93,0.00,,---,0.00,0.00,VWS V14.01,2013-05-07 05:46:00,
2013-05-07 01:51:00,45.7,43.5,30.14,South,174,0.0,0.0,92,0.00,,---,0.00,0.00,VWS V14.01,2013-05-07 05:51:00,
2013-05-07 01:56:00,45.6,43.7,30.14,South,174,0.0,0.0,93,0.00,,---,0.00,0.00,VWS V14.01,2013-05-07 05:56:00,
2013-05-07 02:01:00,45.4,43.5,30.14,South,174,0.0,0.0,93,0.00,,---,0.00,0.00,VWS V14.01,2013-05-07 06:01:00,
2013-05-07 02:06:00,45.3,43.4,30.14,South,174,0.0,0.0,93,0.00,,---,0.00,0.00,VWS V14.01,2013-05-07 06:06:00,
2013-05-07 02:11:00,45.1,43.2,30.14,South,174,0.0,0.0,93,0.00,,---,0.00,0.00,VWS V14.01,2013-05-07 06:11:00,
2013-05-07 02:16:00,44.8,42.9,30.14,South,174,0.0,0.0,93,0.00,,---,0.00,0.00,VWS V14.01,2013-05-07 06:16:00,
2013-05-07 02:21:00,44.7,42.8,30.13,South,174,0.0,0.0,93,0.00,,---,0.00,0.00,VWS V14.01,2013-05-07 06:21:00,
2013-05-07 02:26:00,44.7,43.1,30.13,South,174,0.0,0.0,94,0.00,,---,0.00,0.00,VWS V14.01,2013-05-07 06:26:00,
2013-05-07 02:31:00,44.5,42.9,30.13,South,174,0.0,0.0,94,0.00,,---,0.00,0.00,VWS V14.01,2013-05-07 06:31:00,
2013-05-07 02:36:00,44.4,42.8,30.13,South,174,0.0,0.0,94,0.00,,---,0.00,0.00,VWS V14.01,2013-05-07 06:36:00,
2013-05-07 02:41:00,44.4,43.1,30.14,South,174,0.0,0.0,95,0.00,,---,0.00,0.00,VWS V14.01,2013-05-07 06:41:00,
2013-05-07 02:46:00,44.1,42.8,30.13,South,174,0.0,0.0,95,0.00,,---,0.00,0.00,VWS V14.01,2013-05-07 06:46:00,
2013-05-07 02:51:00,44.1,42.8,30.14,South,174,0.0,0.0,95,0.00,,---,0.00,0.00,VWS V14.01,2013-05-07 06:51:00,
2013-05-07 02:56:00,44.0,42.7,30.14,South,174,0.0,0.0,95,0.00,,---,0.00,0.00,VWS V14.01,2013-05-07 06:56:00,
2013-05-07 03:01:00,43.8,42.5,30.14,South,174,0.0,0.0,95,0.00,,---,0.00,0.00,VWS V14.01,2013-05-07 07:01:00,
2013-05-07 03:06:00,43.7,42.4,30.14,South,174,0.0,0.0,95,0.00,,---,0.00,0.00,VWS V14.01,2013-05-07 07:06:00,
2013-05-07 03:11:00,43.5,42.2,30.14,South,174,0.0,0.0,95,0.00,,---,0.00,0.00,VWS V14.01,2013-05-07 07:11:00,
2013-05-07 03:16:00,43.5,42.2,30.14,South,174,0.0,0.0,95,0.00,,---,0.00,0.00,VWS V14.01,2013-05-07 07:16:00,
2013-05-07 03:21:00,43.4,42.1,30.14,South,174,0.0,0.0,95,0.00,,---,0.00,0.00,VWS V14.01,2013-05-07 07:21:00,
2013-05-07 03:26:00,43.5,42.4,30.14,South,174,0.0,0.0,96,0.00,,---,0.00,0.00,VWS V14.01,2013-05-07 07:26:00,
2013-05-07 03:31:00,43.5,42.4,30.13,South,174,0.0,0.0,96,0.00,,---,0.00,0.00,VWS V14.01,2013-05-07 07:31:00,
2013-05-07 03:36:00,43.5,42.4,30.13,South,174,0.0,0.0,96,0.00,,---,0.00,0.00,VWS V14.01,2013-05-07 07:36:00,
2013-05-07 03:41:00,43.5,42.4,30.13,South,174,0.0,0.0,96,0.00,,---,0.00,0.00,VWS V14.01,2013-05-07 07:41:00,
2013-05-07 03:46:00,43.5,42.4,30.13,South,174,0.0,0.0,96,0.00,,---,0.00,0.00,VWS V14.01,2013-05-07 07:46:00,
2013-05-07 03:51:00,43.5,42.4,30.13,South,174,0.0,0.0,96,0.00,,---,0.00,0.00,VWS V14.01,2013-05-07 07:51:00,
2013-05-07 03:56:00,43.7,42.6,30.13,South,174,0.0,0.0,96,0.00,,---,0.00,0.00,VWS V14.01,2013-05-07 07:56:00,
2013-05-07 04:01:00,43.5,42.4,30.13,South,174,0.0,0.0,96,0.00,,---,0.00,0.00,VWS V14.01,2013-05-07 08:01:00,
2013-05-07 04:06:00,43.4,42.3,30.13,South,174,0.0,0.0,96,0.00,,---,0.00,0.00,VWS V14.01,2013-05-07 08:06:00,
2013-05-07 04:11:00,43.5,42.4,30.13,South,174,0.0,0.0,96,0.00,,---,0.00,0.00,VWS V14.01,2013-05-07 08:11:00,
2013-05-07 04:16:00,43.4,42.3,30.14,South,174,0.0,0.0,96,0.00,,---,0.00,0.00,VWS V14.01,2013-05-07 08:16:00,
2013-05-07 04:21:00,43.1,42.0,30.14,South,174,0.0,0.0,96,0.00,,---,0.00,0.00,VWS V14.01,2013-05-07 08:21:00,
2013-05-07 04:26:00,43.2,42.1,30.13,South,174,0.0,0.0,96,0.00,,---,0.00,0.00,VWS V14.01,2013-05-07 08:26:00,
2013-05-07 04:31:00,43.0,41.9,30.14,South,174,0.0,0.0,96,0.00,,---,0.00,0.00,VWS V14.01,2013-05-07 08:31:00,
2013-05-07 04:36:00,42.7,41.6,30.14,South,174,0.0,0.0,96,0.00,,---,0.00,0.00,VWS V14.01,2013-05-07 08:36:00,
2013-05-07 04:41:00,42.5,41.4,30.13,South,174,0.0,0.0,96,0.00,,---,0.00,0.00,VWS V14.01,2013-05-07 08:41:00,
2013-05-07 04:46:00,42.5,41.4,30.13,South,174,0.0,0.0,96,0.00,,---,0.00,0.00,VWS V14.01,2013-05-07 08:46:00,
2013-05-07 04:52:00,42.5,41.4,30.13,South,174,0.0,0.0,96,0.00,,---,0.00,0.00,VWS V14.01,2013-05-07 08:52:00,
2013-05-07 04:57:00,42.4,41.3,30.13,South,174,0.0,0.0,96,0.00,,---,0.00,0.00,VWS V14.01,2013-05-07 08:57:00,
2013-05-07 05:02:00,42.5,41.4,30.14,South,174,0.0,0.0,96,0.00,,---,0.00,0.00,VWS V14.01,2013-05-07 09:02:00,
2013-05-07 05:07:00,42.5,41.4,30.14,South,174,0.0,0.0,96,0.00,,---,0.00,0.00,VWS V14.01,2013-05-07 09:07:00,
2013-05-07 05:12:00,42.4,41.3,30.14,South,174,0.0,0.0,96,0.00,,---,0.00,0.00,VWS V14.01,2013-05-07 09:12:00,
2013-05-07 05:17:00,42.2,41.1,30.14,South,174,0.0,0.0,96,0.00,,---,0.00,0.00,VWS V14.01,2013-05-07 09:17:00,
2013-05-07 05:22:00,42.1,41.0,30.13,South,174,0.0,0.0,96,0.00,,---,0.00,0.00,VWS V14.01,2013-05-07 09:22:00,
2013-05-07 05:27:00,42.1,41.0,30.14,South,174,0.0,0.0,96,0.00,,---,0.00,0.00,VWS V14.01,2013-05-07 09:27:00,
2013-05-07 05:32:00,42.1,41.0,30.14,South,174,0.0,0.0,96,0.00,,---,0.00,0.00,VWS V14.01,2013-05-07 09:32:00,
2013-05-07 05:37:00,42.1,41.0,30.14,South,174,0.0,0.0,96,0.00,,---,0.00,0.00,VWS V14.01,2013-05-07 09:37:00,
2013-05-07 05:42:00,42.1,41.0,30.14,South,174,0.0,0.0,96,0.00,,---,0.00,5.00,VWS V14.01,2013-05-07 09:42:00,
2013-05-07 05:47:00,42.2,41.1,30.14,South,174,0.0,0.0,96,0.00,,---,0.00,9.00,VWS V14.01,2013-05-07 09:47:00,
2013-05-07 05:52:00,42.4,41.6,30.14,South,174,0.0,0.0,97,0.00,,---,0.00,11.00,VWS V14.01,2013-05-07 09:52:00,
2013-05-07 05:57:00,42.4,41.6,30.14,South,174,0.0,0.0,97,0.00,,---,0.00,14.00,VWS V14.01,2013-05-07 09:57:00,
2013-05-07 06:02:00,42.5,41.7,30.14,South,174,0.0,0.0,97,0.00,,---,0.00,16.00,VWS V14.01,2013-05-07 10:02:00,
2013-05-07 06:07:00,42.7,41.9,30.14,South,174,0.0,0.0,97,0.00,,---,0.00,18.00,VWS V14.01,2013-05-07 10:07:00,
2013-05-07 06:12:00,42.8,42.0,30.14,South,174,0.0,0.0,97,0.00,,---,0.00,21.00,VWS V14.01,2013-05-07 10:12:00,
2013-05-07 06:17:00,42.7,41.9,30.14,South,174,0.0,0.0,97,0.00,,---,0.00,25.00,VWS V14.01,2013-05-07 10:17:00,
2013-05-07 06:22:00,42.4,41.6,30.15,South,174,0.0,0.0,97,0.00,,---,0.00,26.00,VWS V14.01,2013-05-07 10:22:00,
2013-05-07 06:27:00,41.7,40.7,30.15,South,174,0.0,0.0,96,0.00,,---,0.00,28.00,VWS V14.01,2013-05-07 10:27:00,
2013-05-07 06:32:00,41.7,40.7,30.15,South,174,0.0,0.0,96,0.00,,---,0.00,30.00,VWS V14.01,2013-05-07 10:32:00,
2013-05-07 06:37:00,42.0,40.9,30.15,South,174,0.0,0.0,96,0.00,,---,0.00,32.00,VWS V14.01,2013-05-07 10:37:00,
2013-05-07 06:42:00,42.2,41.4,30.15,South,174,0.0,0.0,97,0.00,,---,0.00,33.00,VWS V14.01,2013-05-07 10:42:00,
2013-05-07 06:47:00,42.7,41.9,30.15,South,174,0.0,0.0,97,0.00,,---,0.00,35.00,VWS V14.01,2013-05-07 10:47:00,
2013-05-07 06:52:00,42.8,42.0,30.15,South,174,0.0,0.0,97,0.00,,---,0.00,47.00,VWS V14.01,2013-05-07 10:52:00,
2013-05-07 06:57:00,43.1,42.3,30.15,South,174,0.0,0.0,97,0.00,,---,0.00,58.00,VWS V14.01,2013-05-07 10:57:00,
2013-05-07 07:02:00,43.5,42.7,30.15,South,174,0.0,0.0,97,0.00,,---,0.00,46.00,VWS V14.01,2013-05-07 11:02:00,
2013-05-07 07:07:00,44.0,43.2,30.15,South,174,0.0,0.0,97,0.00,,---,0.00,42.00,VWS V14.01,2013-05-07 11:07:00,
2013-05-07 07:12:00,44.5,43.7,30.15,South,174,0.0,0.0,97,0.00,,---,0.00,42.00,VWS V14.01,2013-05-07 11:12:00,
2013-05-07 07:17:00,45.4,44.6,30.15,South,174,0.0,0.0,97,0.00,,---,0.00,44.00,VWS V14.01,2013-05-07 11:17:00,
2013-05-07 07:22:00,45.9,45.1,30.15,South,174,0.0,0.0,97,0.00,,---,0.00,46.00,VWS V14.01,2013-05-07 11:22:00,
2013-05-07 07:27:00,46.0,44.9,30.15,South,174,0.0,0.0,96,0.00,,---,0.00,46.00,VWS V14.01,2013-05-07 11:27:00,
2013-05-07 07:32:00,46.4,45.3,30.15,South,174,0.0,0.0,96,0.00,,---,0.00,53.00,VWS V14.01,2013-05-07 11:32:00,
2013-05-07 07:37:00,47.2,46.1,30.15,South,174,0.0,0.0,96,0.00,,---,0.00,49.00,VWS V14.01,2013-05-07 11:37:00,
2013-05-07 07:42:00,47.9,46.8,30.15,South,174,0.0,0.0,96,0.00,,---,0.00,51.00,VWS V14.01,2013-05-07 11:42:00,
2013-05-07 07:47:00,48.7,47.6,30.15,South,174,0.0,0.0,96,0.00,,---,0.00,58.00,VWS V14.01,2013-05-07 11:47:00,
2013-05-07 07:52:00,49.4,47.8,30.15,South,174,0.0,0.0,94,0.00,,---,0.00,76.00,VWS V14.01,2013-05-07 11:52:00,
2013-05-07 07:57:00,50.3,48.4,30.15,South,174,0.0,0.0,93,0.00,,---,0.00,91.00,VWS V14.01,2013-05-07 11:57:00,
2013-05-07 08:02:00,50.6,48.1,30.15,South,174,0.0,0.0,91,0.00,,---,0.00,98.00,VWS V14.01,2013-05-07 12:02:00,
2013-05-07 08:07:00,50.9,48.1,30.16,SSE,164,0.0,0.0,90,0.00,,---,0.00,376.00,VWS V14.01,2013-05-07 12:07:00,
2013-05-07 08:12:00,51.5,48.1,30.16,SSE,165,0.0,0.0,88,0.00,,---,0.00,392.00,VWS V14.01,2013-05-07 12:12:00,
2013-05-07 08:17:00,52.4,48.3,30.16,ESE,107,0.0,0.0,86,0.00,,---,0.00,410.00,VWS V14.01,2013-05-07 12:17:00,
2013-05-07 08:22:00,53.2,48.2,30.16,ESE,107,0.0,0.0,83,0.00,,---,0.00,432.00,VWS V14.01,2013-05-07 12:22:00,
2013-05-07 08:27:00,54.0,48.3,30.15,ESE,107,0.0,0.0,81,0.00,,---,0.00,462.00,VWS V14.01,2013-05-07 12:27:00,
2013-05-07 08:32:00,54.7,48.0,30.15,ESE,107,0.0,0.0,78,0.00,,---,0.00,475.00,VWS V14.01,2013-05-07 12:32:00,
2013-05-07 08:37:00,55.3,48.6,30.15,ESE,107,0.0,0.0,78,0.00,,---,0.00,492.00,VWS V14.01,2013-05-07 12:37:00,
2013-05-07 08:42:00,55.8,48.0,30.15,ESE,107,0.0,0.0,75,0.00,,---,0.00,506.00,VWS V14.01,2013-05-07 12:42:00,
2013-05-07 08:47:00,56.2,49.4,30.15,ESE,107,0.0,0.0,78,0.00,,---,0.00,520.00,VWS V14.01,2013-05-07 12:47:00,
2013-05-07 08:52:00,57.2,49.4,30.15,ESE,107,0.0,0.0,75,0.00,,---,0.00,540.00,VWS V14.01,2013-05-07 12:52:00,
2013-05-07 08:57:00,57.2,50.4,30.15,ESE,107,0.0,0.0,78,0.00,,---,0.00,555.00,VWS V14.01,2013-05-07 12:57:00,
2013-05-07 09:02:00,56.8,50.0,30.15,ESE,107,0.0,0.0,78,0.00,,---,0.00,570.00,VWS V14.01,2013-05-07 13:02:00,
2013-05-07 09:07:00,57.5,49.7,30.15,ESE,108,0.0,1.0,75,0.00,,---,0.00,584.00,VWS V14.01,2013-05-07 13:07:00,
2013-05-07 09:12:00,58.9,49.5,30.15,ESE,108,0.0,1.0,71,0.00,,---,0.00,605.00,VWS V14.01,2013-05-07 13:12:00,
2013-05-07 09:17:00,60.1,50.7,30.15,ESE,108,0.0,0.0,71,0.00,,---,0.00,621.00,VWS V14.01,2013-05-07 13:17:00,
2013-05-07 09:22:00,60.9,50.3,30.15,ESE,108,0.0,0.0,68,0.00,,---,0.00,635.00,VWS V14.01,2013-05-07 13:22:00,
2013-05-07 09:27:00,61.4,50.0,30.15,East,98,0.0,0.0,66,0.00,,---,0.00,649.00,VWS V14.01,2013-05-07 13:27:00,
2013-05-07 09:32:00,62.3,50.4,30.15,ENE,61,0.0,0.0,65,0.00,,---,0.00,663.00,VWS V14.01,2013-05-07 13:32:00,
2013-05-07 09:37:00,63.0,51.5,30.15,ENE,60,0.0,0.0,66,0.00,,---,0.00,679.00,VWS V14.01,2013-05-07 13:37:00,
2013-05-07 09:42:00,64.4,51.5,30.15,ENE,59,0.0,0.0,63,0.00,,---,0.00,694.00,VWS V14.01,2013-05-07 13:42:00,
2013-05-07 09:47:00,64.1,50.4,30.15,ENE,59,0.0,0.0,61,0.00,,---,0.00,708.00,VWS V14.01,2013-05-07 13:47:00,
2013-05-07 09:52:00,64.4,52.8,30.15,ENE,59,1.0,1.0,66,0.00,,---,0.00,722.00,VWS V14.01,2013-05-07 13:52:00,
2013-05-07 09:57:00,65.4,53.3,30.14,ENE,57,0.0,1.0,65,0.00,,---,0.00,735.00,VWS V14.01,2013-05-07 13:57:00,
2013-05-07 10:02:00,65.7,51.9,30.14,NE,56,0.0,0.0,61,0.00,,---,0.00,747.00,VWS V14.01,2013-05-07 14:02:00,
2013-05-07 10:07:00,66.5,52.2,30.14,NE,56,0.0,0.0,60,0.00,,---,0.00,761.00,VWS V14.01,2013-05-07 14:07:00,
2013-05-07 10:12:00,66.8,51.6,30.14,NE,54,0.0,0.0,58,0.00,,---,0.00,773.00,VWS V14.01,2013-05-07 14:12:00,
2013-05-07 10:17:00,67.5,52.2,30.14,NE,55,0.0,0.0,58,0.00,,---,0.00,786.00,VWS V14.01,2013-05-07 14:17:00,
2013-05-07 10:22:00,68.5,50.7,30.14,NE,40,0.0,0.0,53,0.00,,---,0.00,800.00,VWS V14.01,2013-05-07 14:22:00,
2013-05-07 10:27:00,69.7,50.2,30.14,NE,36,0.0,0.0,50,0.00,,---,0.00,810.00,VWS V14.01,2013-05-07 14:27:00,
2013-05-07 10:32:00,69.8,50.3,30.14,NW,313,0.0,3.0,50,0.00,,---,0.00,817.00,VWS V14.01,2013-05-07 14:32:00,
2013-05-07 10:37:00,70.3,49.1,30.14,NW,313,0.0,3.0,47,0.00,,---,0.00,831.00,VWS V14.01,2013-05-07 14:37:00,
2013-05-07 10:42:00,70.8,50.7,30.14,NW,316,0.0,3.0,49,0.00,,---,0.00,844.00,VWS V14.01,2013-05-07 14:42:00,
2013-05-07 10:47:00,71.7,48.0,30.14,NW,316,0.0,0.0,43,0.00,,---,0.00,851.00,VWS V14.01,2013-05-07 14:47:00,
2013-05-07 10:52:00,71.9,48.8,30.13,NW,316,0.0,0.0,44,0.00,,---,0.00,861.00,VWS V14.01,2013-05-07 14:52:00,
2013-05-07 10:57:00,72.2,49.7,30.13,NNW,332,1.0,1.0,45,0.00,,---,0.00,872.00,VWS V14.01,2013-05-07 14:57:00,
2013-05-07 11:02:00,72.4,48.7,30.13,NW,325,0.0,0.0,43,0.00,,---,0.00,877.00,VWS V14.01,2013-05-07 15:02:00,
2013-05-07 11:08:00,71.7,49.2,30.13,NNE,29,4.0,5.0,45,0.00,,---,0.00,888.00,VWS V14.01,2013-05-07 15:08:00,
2013-05-07 11:13:00,72.6,48.8,30.13,NE,42,3.0,5.0,43,0.00,,---,0.00,895.00,VWS V14.01,2013-05-07 15:13:00,
2013-05-07 11:17:00,72.7,51.3,30.13,SE,132,2.0,4.0,47,0.00,,---,0.00,904.00,VWS V14.01,2013-05-07 15:17:00,
2013-05-07 11:23:00,71.4,48.4,30.13,SE,134,0.0,4.0,44,0.00,,---,0.00,918.00,VWS V14.01,2013-05-07 15:23:00,
2013-05-07 11:28:00,71.9,50.0,30.13,North,350,0.0,5.0,46,0.00,,---,0.00,918.00,VWS V14.01,2013-05-07 15:28:00,
2013-05-07 11:33:00,72.2,50.3,30.13,SW,215,0.0,4.0,46,0.00,,---,0.00,932.00,VWS V14.01,2013-05-07 15:33:00,
2013-05-07 11:38:00,71.7,49.2,30.12,SE,125,1.0,5.0,45,0.00,,---,0.00,932.00,VWS V14.01,2013-05-07 15:38:00,
2013-05-07 11:43:00,71.5,46.6,30.12,WSW,239,0.0,5.0,41,0.00,,---,0.00,942.00,VWS V14.01,2013-05-07 15:43:00,
2013-05-07 11:48:00,73.2,48.8,30.12,South,191,0.0,0.0,42,0.00,,---,0.00,951.00,VWS V14.01,2013-05-07 15:48:00,
2013-05-07 11:53:00,72.7,46.3,30.12,SSE,163,0.0,4.0,39,0.00,,---,0.00,958.00,VWS V14.01,2013-05-07 15:53:00,
2013-05-07 11:58:00,72.9,47.8,30.12,SSE,161,0.0,4.0,41,0.00,,---,0.00,962.00,VWS V14.01,2013-05-07 15:58:00,
2013-05-07 12:03:00,72.4,47.4,30.12,ESE,122,0.0,2.0,41,0.00,,---,0.00,967.00,VWS V14.01,2013-05-07 16:03:00,
2013-05-07 12:08:00,72.9,45.1,30.12,SSE,167,1.0,4.0,37,0.00,,---,0.00,969.00,VWS V14.01,2013-05-07 16:08:00,
2013-05-07 12:13:00,73.1,43.8,30.11,SSE,163,0.0,4.0,35,0.00,,---,0.00,974.00,VWS V14.01,2013-05-07 16:13:00,
2013-05-07 12:18:00,74.3,51.6,30.11,SSW,194,0.0,0.0,45,0.00,,---,0.00,981.00,VWS V14.01,2013-05-07 16:18:00,
2013-05-07 12:23:00,74.8,44.6,30.11,SSW,194,0.0,1.0,34,0.00,,---,0.00,984.00,VWS V14.01,2013-05-07 16:23:00,
2013-05-07 12:28:00,74.6,42.0,30.11,SSW,199,0.0,1.0,31,0.00,,---,0.00,986.00,VWS V14.01,2013-05-07 16:28:00,
2013-05-07 12:33:00,75.0,49.1,30.11,ESE,103,1.0,1.0,40,0.00,,---,0.00,986.00,VWS V14.01,2013-05-07 16:33:00,
2013-05-07 12:38:00,74.8,41.3,30.11,SSE,161,0.0,8.0,30,0.00,,---,0.00,986.00,VWS V14.01,2013-05-07 16:38:00,
2013-05-07 12:43:00,74.1,39.8,30.11,SSW,208,0.0,8.0,29,0.00,,---,0.00,986.00,VWS V14.01,2013-05-07 16:43:00,
2013-05-07 12:48:00,74.3,44.9,30.11,South,177,3.0,3.0,35,0.00,,---,0.00,988.00,VWS V14.01,2013-05-07 16:48:00,
2013-05-07 12:53:00,74.8,43.0,30.10,SE,134,4.0,4.0,32,0.00,,---,0.00,988.00,VWS V14.01,2013-05-07 16:53:00,
2013-05-07 12:58:00,75.5,43.6,30.10,SE,131,0.0,7.0,32,0.00,,---,0.00,988.00,VWS V14.01,2013-05-07 16:58:00,
2013-05-07 13:03:00,75.5,41.9,30.10,SW,214,0.0,1.0,30,0.00,,---,0.00,988.00,VWS V14.01,2013-05-07 17:03:00,
2013-05-07 13:08:00,75.3,40.9,30.10,SE,141,2.0,9.0,29,0.00,,---,0.00,991.00,VWS V14.01,2013-05-07 17:08:00,
2013-05-07 13:13:00,76.0,42.4,30.10,ESE,115,4.0,9.0,30,0.00,,---,0.00,984.00,VWS V14.01,2013-05-07 17:13:00,
2013-05-07 13:18:00,75.5,45.2,30.10,ENE,69,3.0,3.0,34,0.00,,---,0.00,983.00,VWS V14.01,2013-05-07 17:18:00,
2013-05-07 13:23:00,76.0,42.4,30.10,East,101,1.0,5.0,30,0.00,,---,0.00,981.00,VWS V14.01,2013-05-07 17:23:00,
2013-05-07 13:28:00,75.7,41.2,30.09,ESE,123,1.0,7.0,29,0.00,,---,0.00,977.00,VWS V14.01,2013-05-07 17:28:00,
2013-05-07 13:33:00,75.9,40.5,30.10,South,176,4.0,4.0,28,0.00,,---,0.00,977.00,VWS V14.01,2013-05-07 17:33:00,
2013-05-07 13:38:00,76.0,39.6,30.09,NW,316,0.0,4.0,27,0.00,,---,0.00,976.00,VWS V14.01,2013-05-07 17:38:00,
2013-05-07 13:43:00,78.2,39.5,30.09,NE,51,0.0,5.0,25,0.00,,---,0.00,969.00,VWS V14.01,2013-05-07 17:43:00,
2013-05-07 13:48:00,77.3,42.6,30.09,SE,127,0.0,2.0,29,0.00,,---,0.00,965.00,VWS V14.01,2013-05-07 17:48:00,
2013-05-07 13:53:00,78.0,39.4,30.09,SE,129,0.0,2.0,25,0.00,,---,0.00,958.00,VWS V14.01,2013-05-07 17:53:00,
2013-05-07 13:58:00,78.0,40.4,30.09,SW,229,2.0,4.0,26,0.00,,---,0.00,962.00,VWS V14.01,2013-05-07 17:58:00,
2013-05-07 14:03:00,77.5,40.0,30.09,ESE,117,1.0,1.0,26,0.00,,---,0.00,947.00,VWS V14.01,2013-05-07 18:03:00,
2013-05-07 14:08:00,77.3,38.8,30.09,ESE,121,1.0,1.0,25,0.00,,---,0.00,947.00,VWS V14.01,2013-05-07 18:08:00,
2013-05-07 14:13:00,77.1,40.6,30.09,East,90,0.0,5.0,27,0.00,,---,0.00,937.00,VWS V14.01,2013-05-07 18:13:00,
2013-05-07 14:18:00,76.9,37.4,30.09,SE,139,1.0,7.0,24,0.00,,---,0.00,933.00,VWS V14.01,2013-05-07 18:18:00,
2013-05-07 14:23:00,76.4,43.6,30.09,ESE,119,1.0,7.0,31,0.00,,---,0.00,923.00,VWS V14.01,2013-05-07 18:23:00,
2013-05-07 14:28:00,76.7,39.3,30.08,ESE,107,0.0,7.0,26,0.00,,---,0.00,916.00,VWS V14.01,2013-05-07 18:28:00,
2013-05-07 14:33:00,77.1,37.6,30.08,ESE,108,0.0,1.0,24,0.00,,---,0.00,909.00,VWS V14.01,2013-05-07 18:33:00,
2013-05-07 14:38:00,78.0,38.3,30.08,WNW,297,1.0,4.0,24,0.00,,---,0.00,902.00,VWS V14.01,2013-05-07 18:38:00,
2013-05-07 14:43:00,77.6,41.0,30.08,SSE,156,6.0,7.0,27,0.00,,---,0.00,893.00,VWS V14.01,2013-05-07 18:43:00,
2013-05-07 14:48:00,77.1,37.6,30.08,East,92,2.0,2.0,24,0.00,,---,0.00,882.00,VWS V14.01,2013-05-07 18:48:00,
2013-05-07 14:53:00,78.0,42.3,30.08,WNW,291,4.0,4.0,28,0.00,,---,0.00,879.00,VWS V14.01,2013-05-07 18:53:00,
2013-05-07 14:58:00,77.8,39.2,30.08,SSE,155,0.0,4.0,25,0.00,,---,0.00,865.00,VWS V14.01,2013-05-07 18:58:00,
2013-05-07 15:03:00,78.4,36.5,30.07,East,96,0.0,1.0,22,0.00,,---,0.00,854.00,VWS V14.01,2013-05-07 19:03:00,
2013-05-07 15:08:00,77.6,39.0,30.07,SSW,207,0.0,3.0,25,0.00,,---,0.00,849.00,VWS V14.01,2013-05-07 19:08:00,
2013-05-07 15:13:00,78.0,38.3,30.07,WSW,249,0.0,3.0,24,0.00,,---,0.00,833.00,VWS V14.01,2013-05-07 19:13:00,
2013-05-07 15:18:00,77.8,41.2,30.07,SE,139,3.0,4.0,27,0.00,,---,0.00,824.00,VWS V14.01,2013-05-07 19:18:00,
2013-05-07 15:23:00,77.8,37.1,30.07,WSW,246,1.0,4.0,23,0.00,,---,0.00,810.00,VWS V14.01,2013-05-07 19:23:00,
2013-05-07 15:28:00,78.0,38.3,30.06,ESE,120,3.0,4.0,24,0.00,,---,0.00,798.00,VWS V14.01,2013-05-07 19:28:00,
2013-05-07 15:33:00,77.8,42.1,30.07,SSE,148,1.0,3.0,28,0.00,,---,0.00,784.00,VWS V14.01,2013-05-07 19:33:00,
2013-05-07 15:38:00,78.0,36.1,30.06,SW,221,0.0,3.0,22,0.00,,---,0.00,780.00,VWS V14.01,2013-05-07 19:38:00,
2013-05-07 15:43:00,77.8,36.0,30.06,South,173,0.0,3.0,22,0.00,,---,0.00,765.00,VWS V14.01,2013-05-07 19:43:00,
2013-05-07 15:48:00,78.0,36.1,30.06,WSW,254,0.0,2.0,22,0.00,,---,0.00,749.00,VWS V14.01,2013-05-07 19:48:00,
2013-05-07 15:53:00,77.8,36.0,30.06,SE,132,4.0,7.0,22,0.00,,---,0.00,679.00,VWS V14.01,2013-05-07 19:53:00,
2013-05-07 15:58:00,77.8,37.1,30.06,SE,126,0.0,7.0,23,0.00,,---,0.00,72.00,VWS V14.01,2013-05-07 19:58:00,
2013-05-07 16:03:00,77.6,38.0,30.06,SE,126,9.0,14.0,24,0.00,,---,0.00,104.00,VWS V14.01,2013-05-07 20:03:00,
2013-05-07 16:08:00,77.5,36.8,30.06,ESE,111,3.0,14.0,23,0.00,,---,0.00,67.00,VWS V14.01,2013-05-07 20:08:00,
2013-05-07 16:13:00,77.5,36.8,30.06,South,180,0.0,14.0,23,0.00,,---,0.00,95.00,VWS V14.01,2013-05-07 20:13:00,
2013-05-07 16:18:00,77.1,34.2,30.05,WSW,242,0.0,0.0,21,0.00,,---,0.00,60.00,VWS V14.01,2013-05-07 20:18:00,
2013-05-07 16:23:00,77.3,37.7,30.05,SSE,167,6.0,6.0,24,0.00,,---,0.00,83.00,VWS V14.01,2013-05-07 20:23:00,
2013-05-07 16:28:00,77.8,37.1,30.05,SW,233,2.0,7.0,23,0.00,,---,0.00,53.00,VWS V14.01,2013-05-07 20:28:00,
2013-05-07 16:33:00,78.0,36.1,30.05,SE,128,0.0,8.0,22,0.00,,---,0.00,49.00,VWS V14.01,2013-05-07 20:33:00,
2013-05-07 16:38:00,77.8,38.2,30.05,SSW,209,3.0,8.0,24,0.00,,---,0.00,51.00,VWS V14.01,2013-05-07 20:38:00,
2013-05-07 16:43:00,77.5,36.8,30.05,SSW,207,0.0,8.0,23,0.00,,---,0.00,47.00,VWS V14.01,2013-05-07 20:43:00,
2013-05-07 16:48:00,77.3,34.4,30.05,West,281,0.0,1.0,21,0.00,,---,0.00,62.00,VWS V14.01,2013-05-07 20:48:00,
2013-05-07 16:53:00,76.9,37.4,30.05,West,278,0.0,1.0,24,0.00,,---,0.00,47.00,VWS V14.01,2013-05-07 20:53:00,
2013-05-07 16:58:00,77.1,37.6,30.05,SE,126,2.0,4.0,24,0.00,,---,0.00,100.00,VWS V14.01,2013-05-07 20:58:00,
2013-05-07 17:03:00,77.3,35.5,30.05,SE,129,1.0,3.0,22,0.00,,---,0.00,47.00,VWS V14.01,2013-05-07 21:03:00,
2013-05-07 17:08:00,76.9,34.0,30.05,SSW,207,0.0,5.0,21,0.00,,---,0.00,46.00,VWS V14.01,2013-05-07 21:08:00,
2013-05-07 17:14:00,76.7,33.9,30.05,SSE,161,0.0,5.0,21,0.00,,---,0.00,62.00,VWS V14.01,2013-05-07 21:14:00,
2013-05-07 17:18:00,76.9,36.3,30.05,SE,135,0.0,7.0,23,0.00,,---,0.00,193.00,VWS V14.01,2013-05-07 21:18:00,
2013-05-07 17:24:00,76.9,31.5,30.05,East,97,4.0,7.0,19,0.00,,---,0.00,44.00,VWS V14.01,2013-05-07 21:24:00,
2013-05-07 17:29:00,76.7,33.9,30.05,SSE,159,0.0,7.0,21,0.00,,---,0.00,39.00,VWS V14.01,2013-05-07 21:29:00,
2013-05-07 17:34:00,76.6,33.8,30.05,East,93,1.0,2.0,21,0.00,,---,0.00,98.00,VWS V14.01,2013-05-07 21:34:00,
2013-05-07 17:39:00,76.6,32.6,30.05,South,189,1.0,4.0,20,0.00,,---,0.00,39.00,VWS V14.01,2013-05-07 21:39:00,
2013-05-07 17:44:00,76.6,32.6,30.05,SW,229,0.0,5.0,20,0.00,,---,0.00,35.00,VWS V14.01,2013-05-07 21:44:00,
2013-05-07 17:49:00,76.7,32.7,30.05,ESE,111,2.0,4.0,20,0.00,,---,0.00,33.00,VWS V14.01,2013-05-07 21:49:00,
2013-05-07 17:54:00,76.4,33.6,30.05,SE,134,3.0,7.0,21,0.00,,---,0.00,33.00,VWS V14.01,2013-05-07 21:54:00,
2013-05-07 17:59:00,76.4,33.6,30.05,SE,126,0.0,7.0,21,0.00,,---,0.00,35.00,VWS V14.01,2013-05-07 21:59:00,
2013-05-07 18:04:00,76.4,34.8,30.05,ESE,119,0.0,2.0,22,0.00,,---,0.00,37.00,VWS V14.01,2013-05-07 22:04:00,
2013-05-07 18:09:00,76.4,33.6,30.05,SE,134,0.0,5.0,21,0.00,,---,0.00,69.00,VWS V14.01,2013-05-07 22:09:00,
2013-05-07 18:14:00,76.2,34.6,30.05,SE,132,0.0,7.0,22,0.00,,---,0.00,30.00,VWS V14.01,2013-05-07 22:14:00,
2013-05-07 18:19:00,76.0,35.6,30.05,SE,128,0.0,5.0,23,0.00,,---,0.00,32.00,VWS V14.01,2013-05-07 22:19:00,
2013-05-07 18:24:00,76.0,37.7,30.05,ENE,71,0.0,5.0,25,0.00,,---,0.00,25.00,VWS V14.01,2013-05-07 22:24:00,
2013-05-07 18:29:00,75.9,36.5,30.05,SE,145,0.0,5.0,24,0.00,,---,0.00,25.00,VWS V14.01,2013-05-07 22:29:00,
2013-05-07 18:34:00,75.9,36.5,30.05,SSE,159,4.0,5.0,24,0.00,,---,0.00,23.00,VWS V14.01,2013-05-07 22:34:00,
2013-05-07 18:39:00,75.5,38.2,30.05,SSE,158,0.0,5.0,26,0.00,,---,0.00,26.00,VWS V14.01,2013-05-07 22:39:00,
2013-05-07 18:44:00,75.3,40.0,30.06,SSE,156,0.0,7.0,28,0.00,,---,0.00,25.00,VWS V14.01,2013-05-07 22:44:00,
2013-05-07 18:49:00,75.0,38.8,30.06,South,175,1.0,2.0,27,0.00,,---,0.00,19.00,VWS V14.01,2013-05-07 22:49:00,
2013-05-07 18:54:00,74.8,39.5,30.06,East,86,0.0,4.0,28,0.00,,---,0.00,18.00,VWS V14.01,2013-05-07 22:54:00,
2013-05-07 18:59:00,74.6,39.4,30.06,ESE,113,0.0,6.0,28,0.00,,---,0.00,18.00,VWS V14.01,2013-05-07 22:59:00,
2013-05-07 19:04:00,74.5,40.2,30.06,ESE,113,0.0,1.0,29,0.00,,---,0.00,16.00,VWS V14.01,2013-05-07 23:04:00,
2013-05-07 19:09:00,74.1,41.6,30.06,SSE,153,0.0,4.0,31,0.00,,---,0.00,14.00,VWS V14.01,2013-05-07 23:09:00,
2013-05-07 19:14:00,73.8,40.5,30.06,SSE,153,0.0,4.0,30,0.00,,---,0.00,14.00,VWS V14.01,2013-05-07 23:14:00,
2013-05-07 19:19:00,73.4,42.6,30.07,SSE,153,0.0,0.0,33,0.00,,---,0.00,12.00,VWS V14.01,2013-05-07 23:19:00,
2013-05-07 19:24:00,72.2,42.3,30.07,SSE,149,0.0,1.0,34,0.00,,---,0.00,11.00,VWS V14.01,2013-05-07 23:24:00,
2013-05-07 19:29:00,71.9,47.6,30.07,ESE,121,0.0,5.0,42,0.00,,---,0.00,9.00,VWS V14.01,2013-05-07 23:29:00,
2013-05-07 19:34:00,71.7,50.4,30.07,South,184,6.0,6.0,47,0.00,,---,0.00,9.00,VWS V14.01,2013-05-07 23:34:00,
2013-05-07 19:39:00,71.5,51.9,30.07,SE,144,3.0,6.0,50,0.00,,---,0.00,7.00,VWS V14.01,2013-05-07 23:39:00,
2013-05-07 19:44:00,71.2,52.2,30.07,SSE,150,1.0,6.0,51,0.00,,---,0.00,5.00,VWS V14.01,2013-05-07 23:44:00,
2013-05-07 19:49:00,70.8,52.8,30.07,SE,134,1.0,5.0,53,0.00,,---,0.00,0.00,VWS V14.01,2013-05-07 23:49:00,
2013-05-07 19:54:00,70.3,53.4,30.07,SE,126,0.0,7.0,55,0.00,,---,0.00,0.00,VWS V14.01,2013-05-07 23:54:00,
2013-05-07 19:59:00,69.8,53.4,30.08,SE,126,0.0,7.0,56,0.00,,---,0.00,0.00,VWS V14.01,2013-05-07 23:59:00,
2013-05-07 20:04:00,69.7,53.3,30.08,East,94,6.0,6.0,56,0.00,,---,0.00,0.00,VWS V14.01,2013-05-08 00:04:00,
2013-05-07 20:09:00,69.5,53.6,30.08,SE,125,0.0,6.0,57,0.00,,---,0.00,0.00,VWS V14.01,2013-05-08 00:09:00,
2013-05-07 20:14:00,69.3,53.9,30.08,SE,140,0.0,6.0,58,0.00,,---,0.00,0.00,VWS V14.01,2013-05-08 00:14:00,
2013-05-07 20:19:00,69.0,54.1,30.08,SE,143,5.0,5.0,59,0.00,,---,0.00,0.00,VWS V14.01,2013-05-08 00:19:00,
2013-05-07 20:24:00,68.7,54.3,30.08,ESE,115,3.0,5.0,60,0.00,,---,0.00,0.00,VWS V14.01,2013-05-08 00:24:00,
2013-05-07 20:29:00,68.5,54.1,30.09,SE,136,0.0,5.0,60,0.00,,---,0.00,0.00,VWS V14.01,2013-05-08 00:29:00,
2013-05-07 20:34:00,68.3,53.9,30.09,SE,143,0.0,3.0,60,0.00,,---,0.00,0.00,VWS V14.01,2013-05-08 00:34:00,
2013-05-07 20:39:00,68.2,54.2,30.09,South,176,0.0,5.0,61,0.00,,---,0.00,0.00,VWS V14.01,2013-05-08 00:39:00,
2013-05-07 20:44:00,67.8,53.9,30.09,South,173,0.0,5.0,61,0.00,,---,0.00,0.00,VWS V14.01,2013-05-08 00:44:00,
2013-05-07 20:49:00,67.7,54.2,30.09,SSE,150,0.0,10.0,62,0.00,,---,0.00,0.00,VWS V14.01,2013-05-08 00:49:00,
2013-05-07 20:54:00,67.3,54.3,30.09,SSE,159,2.0,10.0,63,0.00,,---,0.00,0.00,VWS V14.01,2013-05-08 00:54:00,
2013-05-07 20:59:00,67.2,54.2,30.10,SSE,168,0.0,10.0,63,0.00,,---,0.00,0.00,VWS V14.01,2013-05-08 00:59:00,
2013-05-07 21:04:00,67.0,54.4,30.10,SE,128,2.0,4.0,64,0.00,,---,0.00,0.00,VWS V14.01,2013-05-08 01:04:00,
2013-05-07 21:09:00,66.8,54.2,30.10,South,188,0.0,4.0,64,0.00,,---,0.00,0.00,VWS V14.01,2013-05-08 01:09:00,
2013-05-07 21:14:00,66.3,54.2,30.10,ESE,108,0.0,4.0,65,0.00,,---,0.00,0.00,VWS V14.01,2013-05-08 01:14:00,
2013-05-07 21:19:00,66.2,54.5,30.10,SE,135,0.0,4.0,66,0.00,,---,0.00,0.00,VWS V14.01,2013-05-08 01:19:00,
2013-05-07 21:24:00,66.0,54.3,30.10,ESE,121,0.0,4.0,66,0.00,,---,0.00,0.00,VWS V14.01,2013-05-08 01:24:00,
2013-05-07 21:29:00,66.0,54.7,30.11,SSW,204,0.0,4.0,67,0.00,,---,0.00,0.00,VWS V14.01,2013-05-08 01:29:00,
2013-05-07 21:34:00,65.7,54.5,30.11,SSE,154,0.0,1.0,67,0.00,,---,0.00,0.00,VWS V14.01,2013-05-08 01:34:00,
2013-05-07 21:39:00,65.4,54.6,30.11,SSE,148,0.0,2.0,68,0.00,,---,0.00,0.00,VWS V14.01,2013-05-08 01:39:00,
2013-05-07 21:44:00,65.4,55.0,30.11,South,186,0.0,3.0,69,0.00,,---,0.00,0.00,VWS V14.01,2013-05-08 01:44:00,
2013-05-07 21:49:00,64.9,54.9,30.11,South,186,1.0,1.0,70,0.00,,---,0.00,0.00,VWS V14.01,2013-05-08 01:49:00,
2013-05-07 21:54:00,64.6,54.6,30.11,South,184,0.0,2.0,70,0.00,,---,0.00,0.00,VWS V14.01,2013-05-08 01:54:00,
2013-05-07 21:59:00,64.2,54.6,30.11,SSE,155,1.0,6.0,71,0.00,,---,0.00,0.00,VWS V14.01,2013-05-08 01:59:00,
2013-05-07 22:04:00,64.1,54.9,30.12,ESE,109,0.0,2.0,72,0.00,,---,0.00,0.00,VWS V14.01,2013-05-08 02:04:00,
2013-05-07 22:09:00,63.6,54.4,30.12,SE,146,0.0,3.0,72,0.00,,---,0.00,0.00,VWS V14.01,2013-05-08 02:09:00,
2013-05-07 22:14:00,63.1,54.3,30.12,SE,143,3.0,3.0,73,0.00,,---,0.00,0.00,VWS V14.01,2013-05-08 02:14:00,
2013-05-07 22:19:00,62.8,54.8,30.12,SE,128,0.0,2.0,75,0.00,,---,0.00,0.00,VWS V14.01,2013-05-08 02:19:00,
2013-05-07 22:24:00,62.5,54.1,30.12,SE,128,0.0,2.0,74,0.00,,---,0.00,0.00,VWS V14.01,2013-05-08 02:24:00,
2013-05-07 22:29:00,62.8,54.8,30.12,SE,128,0.0,2.0,75,0.00,,---,0.00,0.00,VWS V14.01,2013-05-08 02:29:00,
2013-05-07 22:34:00,62.8,54.8,30.12,SE,127,0.0,3.0,75,0.00,,---,0.00,0.00,VWS V14.01,2013-05-08 02:34:00,
2013-05-07 22:39:00,63.0,55.0,30.12,SE,128,0.0,3.0,75,0.00,,---,0.00,0.00,VWS V14.01,2013-05-08 02:39:00,
2013-05-07 22:44:00,63.0,55.0,30.12,SE,128,0.0,3.0,75,0.00,,---,0.00,0.00,VWS V14.01,2013-05-08 02:44:00,
2013-05-07 22:49:00,62.8,54.8,30.12,SE,128,0.0,2.0,75,0.00,,---,0.00,0.00,VWS V14.01,2013-05-08 02:49:00,
2013-05-07 22:54:00,62.6,54.9,30.12,SE,128,1.0,2.0,76,0.00,,---,0.00,0.00,VWS V14.01,2013-05-08 02:54:00,
2013-05-07 22:59:00,62.5,54.8,30.12,SE,126,0.0,4.0,76,0.00,,---,0.00,0.00,VWS V14.01,2013-05-08 02:59:00,
2013-05-07 23:04:00,62.2,54.9,30.12,SE,126,0.0,0.0,77,0.00,,---,0.00,0.00,VWS V14.01,2013-05-08 03:04:00,
2013-05-07 23:09:00,61.9,54.6,30.12,SE,126,0.0,2.0,77,0.00,,---,0.00,0.00,VWS V14.01,2013-05-08 03:09:00,
2013-05-07 23:14:00,61.1,54.2,30.12,SE,126,0.0,2.0,78,0.00,,---,0.00,0.00,VWS V14.01,2013-05-08 03:14:00,
2013-05-07 23:19:00,60.6,54.4,30.12,SE,126,0.0,0.0,80,0.00,,---,0.00,0.00,VWS V14.01,2013-05-08 03:19:00,
2013-05-07 23:24:00,60.0,54.2,30.12,SE,126,0.0,0.0,81,0.00,,---,0.00,0.00,VWS V14.01,2013-05-08 03:24:00,
2013-05-07 23:29:00,59.7,53.5,30.12,SE,126,0.0,0.0,80,0.00,,---,0.00,0.00,VWS V14.01,2013-05-08 03:29:00,
2013-05-07 23:34:00,59.4,53.6,30.13,SE,126,0.0,0.0,81,0.00,,---,0.00,0.00,VWS V14.01,2013-05-08 03:34:00,
2013-05-07 23:39:00,59.1,53.6,30.13,SE,126,0.0,0.0,82,0.00,,---,0.00,0.00,VWS V14.01,2013-05-08 03:39:00,
2013-05-07 23:44:00,58.8,53.7,30.13,SE,126,0.0,0.0,83,0.00,,---,0.00,0.00,VWS V14.01,2013-05-08 03:44:00,
2013-05-07 23:49:00,58.8,54.0,30.13,SE,126,0.0,0.0,84,0.00,,---,0.00,0.00,VWS V14.01,2013-05-08 03:49:00,
2013-05-07 23:54:00,58.5,53.7,30.13,SE,126,0.0,1.0,84,0.00,,---,0.00,0.00,VWS V14.01,2013-05-08 03:54:00,
2013-05-07 23:59:00,58.5,54.3,30.13,SE,126,0.0,1.0,86,0.00,,---,0.00,0.00,VWS V14.01,2013-05-08 03:59:00,